Location: Oshawa
(43.9000°N, 78.8670°W)
Time: 18:33:04
(UTC-04:00)

Explorer 7 - Visible Passes

Search period start: 01 April 2015 00:00
Search period end: 11 April 2015 00:00
Orbit: 489 x 696 km, 50.3° (Epoch: 31 March)

Date Brightness Start Highest point End Pass type
(mag) Time Alt. Az. Time Alt. Az. Time Alt. Az.
01 Apr 8.1 20:21:34 10° WNW 20:25:56 38° N 20:30:02 10° ENE visible
01 Apr 7.1 22:02:39 10° WNW 22:06:46 71° NW 22:06:46 71° NW visible
02 Apr 7.8 20:30:01 10° WNW 20:34:28 43° NNE 20:38:15 12° E visible
02 Apr 7.4 22:11:02 10° WNW 22:14:47 56° W 22:14:47 56° W visible
03 Apr 7.4 20:38:23 10° WNW 20:42:57 54° NNE 20:46:17 16° E visible
03 Apr 8.1 22:19:29 10° WNW 22:22:50 37° WSW 22:22:50 37° WSW visible
04 Apr 7.1 20:46:45 10° WNW 20:51:23 73° NNE 20:54:21 20° ESE visible
04 Apr 8.8 22:28:08 10° W 22:30:54 24° WSW 22:30:54 24° WSW visible
05 Apr 7.0 20:55:05 10° WNW 20:59:42 78° SSW 21:02:28 22° SE visible
05 Apr 9.3 22:37:13 10° W 22:39:01 15° WSW 22:39:01 15° WSW visible
06 Apr 7.6 21:03:29 10° WNW 21:07:56 50° SW 21:10:38 20° SSE visible
07 Apr 8.4 21:12:02 10° WNW 21:16:04 31° SW 21:18:52 16° S visible
08 Apr 9.1 21:20:52 10° W 21:24:07 19° SW 21:27:08 10° S visible
09 Apr 9.7 21:30:48 10° WSW 21:32:05 11° SW 21:33:08 10° SW visible
